Regional Weather Roundup
Issued by NWS

Home | Current Version | Previous Version | Text Only | Print | Product List | Glossary On
Versions: 1 2 3 4 5 6 7 8 9 10 11 12 13 14 15 16 17 18 19 20 21 22 23 24 25 26 27 28 29 30 31 32 33 34 35 36 37 38 39 40 41 42 43 44 45 46 47 48 49 50
000
ASUS43 KLMK 260202
RWRKY
KENTUCKY REGIONAL WEATHER ROUNDUP
NATIONAL WEATHER SERVICE LOUISVILLE KY
900 PM EST SUN JAN 25 2015

NOTE "FAIR" INDICATES FEW OR NO CLOUDS BELOW 12,000 FEET
WITH NO SIGNIFICANT WEATHER AND/OR OBSTRUCTIONS TO VISIBILITY.

KYZ001>023-026-027-061>063-070>075-260300-
WESTERN AND SOUTH CENTRAL KENTUCKY

CITY           SKY/WX    TMP DP  RH WIND       PRES   REMARKS
PADUCAH        CLOUDY    44  42  93 NW9       29.76R
HENDERSON      CLOUDY    43  37  81 NW10      29.71R
OWENSBORO      CLOUDY    40  40 100 W3        29.70R
HOPKINSVILLE   MIX PCPN  43  41  93 W15       29.70R
BOWLING GREEN  LGT RAIN  40  37  89 W3        29.70R
GLASGOW        NOT AVBL
$$

KYZ024-025-028>034-038-045-046-053-260300-
NORTH CENTRAL KENTUCKY

CITY           SKY/WX    TMP DP  RH WIND       PRES   REMARKS
LOUISVILLE/SDF LGT RAIN  42  39  89 N6        29.67S FOG
LOUISVILLE/LOU LGT RAIN  41  39  93 N3        29.67S
FORT KNOX      CLOUDY    39  39 100 N5        29.65S FOG
$$

KYZ035>037-039>044-047>052-055>060-089>105-260300-
NORTHEAST KENTUCKY

CITY           SKY/WX    TMP DP  RH WIND       PRES   REMARKS
LEXINGTON      RAIN      41  40  96 CALM      29.67S FOG
COVINGTON      LGT RAIN  39  37  92 NE6       29.68S FOG     WCI  35
FRANKFORT      LGT RAIN  40  39  97 SE6       29.65F FOG
$$

KYZ054-064>069-076>088-106>120-260300-
SOUTHEAST KENTUCKY

CITY           SKY/WX    TMP DP  RH WIND       PRES   REMARKS
JACKSON        LGT RAIN  43  36  76 E5        29.67F
LONDON         LGT RAIN  48  32  53 SW5       29.67S
SOMERSET       NOT AVBL
MIDDLESBORO    NOT AVBL
MONTICELLO     CLOUDY    45  42  89 S9        29.70F
$$



USA.gov is the U.S. government's official web portal to all federal, state and local government web resources and services.